QLK1853 YPDN-YBCS

Flight info

Callsign QLK1853
Flight time 2h 11m
Altitude 37000
Route DN Y25 RUPEG DCT SOCAR J61 CS
Aircraft A320/M-SDE3FGHIRWY/LB1

Departure

Time 2026-04-23 00:01
Airport Darwin International Airport / RAAF Darwin (YPDN)

Arrival

Time 2026-04-23 02:13
Airport Cairns International Airport (YBCS)
Time Latitude Longitude Altitude Speed Heading
2026-04-22 23:44 -12.40876 130.87683 92 ft 0 kts 21°
2026-04-22 23:52 -12.40884 130.87679 92 ft 2 kts 21°
2026-04-22 23:52 -12.40899 130.87673 92 ft 2 kts 21°
2026-04-22 23:53 -12.40914 130.87667 90 ft 2 kts 10°
2026-04-22 23:53 -12.40930 130.87668 92 ft 2 kts 324°
2026-04-22 23:53 -12.40941 130.87680 93 ft 1 kts 295°
2026-04-22 23:55 -12.40937 130.87671 92 ft 2 kts 293°
2026-04-22 23:55 -12.40938 130.87647 92 ft 5 kts 253°
2026-04-22 23:56 -12.40955 130.87625 93 ft 2 kts 220°
2026-04-22 23:56 -12.40976 130.87613 95 ft 6 kts 206°
2026-04-22 23:56 -12.41009 130.87600 95 ft 6 kts 199°
2026-04-22 23:56 -12.41050 130.87585 97 ft 4 kts 199°
2026-04-22 23:57 -12.41070 130.87574 98 ft 3 kts 218°
2026-04-22 23:57 -12.41084 130.87533 100 ft 10 kts 271°
2026-04-22 23:57 -12.41065 130.87464 99 ft 10 kts 289°
2026-04-22 23:57 -12.41044 130.87401 98 ft 9 kts 289°
2026-04-22 23:58 -12.41026 130.87350 100 ft 7 kts 289°
2026-04-22 23:58 -12.41013 130.87310 98 ft 5 kts 289°
2026-04-22 23:58 -12.40999 130.87270 98 ft 8 kts 289°
2026-04-22 23:58 -12.40973 130.87192 97 ft 14 kts 289°
2026-04-22 23:59 -12.40940 130.87098 93 ft 13 kts 292°
2026-04-22 23:59 -12.40899 130.87027 94 ft 9 kts 294°
2026-04-22 23:59 -12.40896 130.86989 99 ft 3 kts 261°
2026-04-22 23:59 -12.40918 130.86953 101 ft 6 kts 220°
2026-04-23 00:00 -12.41029 130.86938 102 ft 8 kts 178°
2026-04-23 00:00 -12.41066 130.86953 101 ft 10 kts 144°
2026-04-23 00:00 -12.41134 130.87115 102 ft 42 kts 106°
2026-04-23 00:01 -12.41229 130.87409 99 ft 87 kts 110°
2026-04-23 00:01 -12.41496 130.88184 95 ft 141 kts 109°
2026-04-23 00:01 -12.41862 130.89258 263 ft 171 kts 110°
2026-04-23 00:01 -12.42252 130.90421 923 ft 171 kts 109°
2026-04-23 00:02 -12.42733 130.91880 2104 ft 154 kts 105°
2026-04-23 00:02 -12.43012 130.92972 2549 ft 167 kts 101°
2026-04-23 00:02 -12.43182 130.93787 2767 ft 181 kts 101°
2026-04-23 00:02 -12.43462 130.95145 3019 ft 209 kts 101°
2026-04-23 00:03 -12.43788 130.96681 3424 ft 232 kts 102°
2026-04-23 00:03 -12.44144 130.98329 4134 ft 241 kts 102°
2026-04-23 00:03 -12.44515 131.00020 4950 ft 246 kts 102°
2026-04-23 00:03 -12.44894 131.01740 5765 ft 250 kts 102°
2026-04-23 00:04 -12.45280 131.03499 6530 ft 257 kts 102°
2026-04-23 00:04 -12.45677 131.05300 7263 ft 263 kts 102°
2026-04-23 00:04 -12.46088 131.07144 7976 ft 269 kts 102°
2026-04-23 00:04 -12.46508 131.09023 8713 ft 274 kts 102°
2026-04-23 00:05 -12.46935 131.10943 9414 ft 280 kts 103°
2026-04-23 00:05 -12.47375 131.12917 10040 ft 288 kts 102°
2026-04-23 00:05 -12.47830 131.14963 10408 ft 306 kts 102°
2026-04-23 00:05 -12.48319 131.17167 10592 ft 329 kts 102°
2026-04-23 00:06 -12.48842 131.19522 10777 ft 349 kts 102°
2026-04-23 00:06 -12.49380 131.21948 11250 ft 358 kts 102°
2026-04-23 00:06 -12.49943 131.24485 11845 ft 363 kts 102°
2026-04-23 00:06 -12.50507 131.27018 12465 ft 367 kts 102°
2026-04-23 00:07 -12.51068 131.29544 13031 ft 372 kts 102°
2026-04-23 00:07 -12.51642 131.32138 13603 ft 376 kts 102°
2026-04-23 00:07 -12.52231 131.34798 14146 ft 380 kts 102°
2026-04-23 00:07 -12.52817 131.37450 14676 ft 383 kts 102°
2026-04-23 00:08 -12.53400 131.40079 15202 ft 386 kts 102°
2026-04-23 00:08 -12.54005 131.42800 15724 ft 388 kts 102°
2026-04-23 00:08 -12.54592 131.45465 16251 ft 390 kts 102°
2026-04-23 00:08 -12.55188 131.48179 16786 ft 392 kts 102°
2026-04-23 00:09 -12.55787 131.50904 17284 ft 394 kts 102°
2026-04-23 00:09 -12.56392 131.53649 17729 ft 397 kts 102°
2026-04-23 00:09 -12.57002 131.56411 18210 ft 399 kts 103°
2026-04-23 00:09 -12.57613 131.59185 18646 ft 400 kts 103°
2026-04-23 00:10 -12.58226 131.61974 19006 ft 403 kts 103°
2026-04-23 00:10 -12.58845 131.64788 19368 ft 406 kts 103°
2026-04-23 00:10 -12.59467 131.67621 19757 ft 409 kts 103°
2026-04-23 00:10 -12.60091 131.70462 20145 ft 411 kts 103°
2026-04-23 00:11 -12.60722 131.73326 20484 ft 414 kts 103°
2026-04-23 00:11 -12.61361 131.76209 20843 ft 416 kts 103°
2026-04-23 00:11 -12.62002 131.79110 21203 ft 419 kts 103°
2026-04-23 00:11 -12.62646 131.82029 21540 ft 422 kts 103°
2026-04-23 00:12 -12.63292 131.84969 21868 ft 425 kts 103°
2026-04-23 00:12 -12.63940 131.87932 22211 ft 427 kts 104°
2026-04-23 00:12 -12.64591 131.90905 22567 ft 429 kts 104°
2026-04-23 00:12 -12.65245 131.93897 22885 ft 432 kts 103°
2026-04-23 00:13 -12.65905 131.96912 23196 ft 435 kts 104°
2026-04-23 00:13 -12.66569 131.99944 23521 ft 438 kts 104°
2026-04-23 00:13 -12.67237 132.02991 23792 ft 440 kts 104°
2026-04-23 00:13 -12.67906 132.06054 24044 ft 442 kts 103°
2026-04-23 00:14 -12.68578 132.09138 24304 ft 444 kts 104°
2026-04-23 00:14 -12.69253 132.12234 24572 ft 446 kts 103°
2026-04-23 00:14 -12.69930 132.15340 24823 ft 448 kts 104°
2026-04-23 00:14 -12.70609 132.18466 25069 ft 450 kts 103°
2026-04-23 00:15 -12.71310 132.21597 25311 ft 452 kts 107°
2026-04-23 00:15 -12.72359 132.24629 25545 ft 453 kts 115°
2026-04-23 00:15 -12.73704 132.27549 25781 ft 455 kts 116°
2026-04-23 00:15 -12.75062 132.30484 26021 ft 457 kts 116°
2026-04-23 00:16 -12.76424 132.33434 26264 ft 459 kts 116°
2026-04-23 00:16 -12.77791 132.36402 26490 ft 462 kts 116°
2026-04-23 00:16 -12.79165 132.39383 26700 ft 464 kts 116°
2026-04-23 00:16 -12.80547 132.42384 26930 ft 467 kts 116°
2026-04-23 00:17 -12.81935 132.45399 27141 ft 469 kts 116°
2026-04-23 00:17 -12.83307 132.48383 27376 ft 470 kts 116°
2026-04-23 00:17 -12.84705 132.51426 27575 ft 473 kts 116°
2026-04-23 00:17 -12.86108 132.54475 27790 ft 475 kts 116°
2026-04-23 00:18 -12.87538 132.57585 28003 ft 477 kts 116°
2026-04-23 00:18 -12.88936 132.60628 28202 ft 479 kts 116°
2026-04-23 00:18 -12.90357 132.63721 28397 ft 481 kts 116°
2026-04-23 00:18 -12.91780 132.66825 28619 ft 482 kts 116°
2026-04-23 00:19 -12.93211 132.69946 28792 ft 485 kts 116°
2026-04-23 00:19 -12.94651 132.73081 29011 ft 486 kts 116°
2026-04-23 00:19 -12.96089 132.76220 29259 ft 487 kts 117°
2026-04-23 00:19 -12.97529 132.79361 29559 ft 487 kts 116°
2026-04-23 00:20 -12.98966 132.82503 29844 ft 487 kts 116°
2026-04-23 00:20 -13.00404 132.85647 30135 ft 486 kts 116°
2026-04-23 00:20 -13.01841 132.88787 30369 ft 486 kts 116°
2026-04-23 00:20 -13.03281 132.91926 30641 ft 486 kts 116°
2026-04-23 00:21 -13.04722 132.95067 30856 ft 487 kts 116°
2026-04-23 00:21 -13.06160 132.98204 31178 ft 485 kts 116°
2026-04-23 00:21 -13.07590 133.01328 31501 ft 483 kts 116°
2026-04-23 00:21 -13.09015 133.04446 31812 ft 482 kts 116°
2026-04-23 00:22 -13.10438 133.07561 32036 ft 483 kts 116°
2026-04-23 00:22 -13.11862 133.10685 32287 ft 483 kts 116°
2026-04-23 00:22 -13.13288 133.13812 32535 ft 483 kts 116°
2026-04-23 00:22 -13.14710 133.16924 32865 ft 482 kts 116°
2026-04-23 00:23 -13.16128 133.20034 33217 ft 479 kts 116°
2026-04-23 00:23 -13.17535 133.23124 33549 ft 478 kts 117°
2026-04-23 00:23 -13.18944 133.26213 33798 ft 478 kts 116°
2026-04-23 00:23 -13.20352 133.29305 34034 ft 479 kts 117°
2026-04-23 00:24 -13.21759 133.32404 34293 ft 478 kts 115°
2026-04-23 00:24 -13.22918 133.35604 34566 ft 478 kts 109°
2026-04-23 00:24 -13.23963 133.38840 34861 ft 476 kts 110°
2026-04-23 00:24 -13.25002 133.42061 35116 ft 475 kts 109°
2026-04-23 00:25 -13.26026 133.45241 35335 ft 475 kts 109°
2026-04-23 00:25 -13.27075 133.48502 35606 ft 474 kts 109°
2026-04-23 00:25 -13.28105 133.51705 35884 ft 472 kts 109°
2026-04-23 00:25 -13.29118 133.54856 36118 ft 471 kts 110°
2026-04-23 00:26 -13.30149 133.58044 36340 ft 470 kts 110°
2026-04-23 00:26 -13.31178 133.61226 36576 ft 469 kts 110°
2026-04-23 00:26 -13.32202 133.64396 36816 ft 467 kts 110°
2026-04-23 00:26 -13.33221 133.67562 36990 ft 467 kts 110°
2026-04-23 00:27 -13.34237 133.70739 37036 ft 469 kts 110°
2026-04-23 00:27 -13.36276 133.77096 37035 ft 469 kts 110°
2026-04-23 00:28 -13.38324 133.83455 37029 ft 469 kts 110°
2026-04-23 00:28 -13.40367 133.89820 37033 ft 469 kts 110°
2026-04-23 00:29 -13.42399 133.96181 37030 ft 469 kts 110°
2026-04-23 00:29 -13.44432 134.02548 37031 ft 469 kts 110°
2026-04-23 00:30 -13.46471 134.08919 37038 ft 469 kts 110°
2026-04-23 00:30 -13.48510 134.15286 37035 ft 470 kts 110°
2026-04-23 00:31 -13.50545 134.21667 37039 ft 470 kts 110°
2026-04-23 00:31 -13.52576 134.28050 37039 ft 470 kts 110°
2026-04-23 00:32 -13.54614 134.34438 37039 ft 470 kts 110°
2026-04-23 00:32 -13.56647 134.40821 37036 ft 470 kts 110°
2026-04-23 00:33 -13.58670 134.47167 37028 ft 470 kts 110°
2026-04-23 00:33 -13.60699 134.53553 37030 ft 470 kts 110°
2026-04-23 00:34 -13.62724 134.59939 37030 ft 470 kts 110°
2026-04-23 00:34 -13.64749 134.66337 37030 ft 470 kts 110°
2026-04-23 00:35 -13.66774 134.72733 37023 ft 470 kts 110°
2026-04-23 00:35 -13.68795 134.79132 37022 ft 470 kts 110°
2026-04-23 00:36 -13.70820 134.85527 37016 ft 470 kts 110°
2026-04-23 00:36 -13.72845 134.91925 37017 ft 471 kts 110°
2026-04-23 00:37 -13.74871 134.98328 37019 ft 471 kts 110°
2026-04-23 00:37 -13.76890 135.04734 37020 ft 471 kts 110°
2026-04-23 00:38 -13.78906 135.11146 37024 ft 471 kts 110°
2026-04-23 00:38 -13.80910 135.17516 37023 ft 471 kts 110°
2026-04-23 00:39 -13.82921 135.23933 37027 ft 471 kts 110°
2026-04-23 00:39 -13.84939 135.30356 37023 ft 472 kts 110°
2026-04-23 00:40 -13.86956 135.36786 37021 ft 472 kts 110°
2026-04-23 00:40 -13.88974 135.43216 37018 ft 472 kts 110°
2026-04-23 00:41 -13.90984 135.49655 37019 ft 472 kts 110°
2026-04-23 00:41 -13.92992 135.56096 37017 ft 472 kts 110°
2026-04-23 00:42 -13.95003 135.62536 37013 ft 473 kts 111°
2026-04-23 00:42 -13.97021 135.68971 37010 ft 473 kts 111°
2026-04-23 00:43 -13.99042 135.75417 37009 ft 473 kts 111°
2026-04-23 00:43 -14.01062 135.81876 37011 ft 474 kts 111°
2026-04-23 00:44 -14.03060 135.88298 37011 ft 474 kts 110°
2026-04-23 00:44 -14.05072 135.94768 37015 ft 474 kts 111°
2026-04-23 00:45 -14.07094 136.01235 37017 ft 475 kts 111°
2026-04-23 00:45 -14.09105 136.07710 37015 ft 475 kts 111°
2026-04-23 00:46 -14.11115 136.14193 37016 ft 475 kts 111°
2026-04-23 00:46 -14.13127 136.20680 37019 ft 476 kts 111°
2026-04-23 00:47 -14.15140 136.27173 37019 ft 476 kts 111°
2026-04-23 00:47 -14.17153 136.33671 37022 ft 476 kts 111°
2026-04-23 00:48 -14.19168 136.40176 37024 ft 476 kts 111°
2026-04-23 00:48 -14.21173 136.46679 37023 ft 477 kts 111°
2026-04-23 00:49 -14.23179 136.53192 37021 ft 477 kts 111°
2026-04-23 00:49 -14.25186 136.59705 37021 ft 477 kts 111°
2026-04-23 00:50 -14.27198 136.66224 37023 ft 477 kts 111°
2026-04-23 00:50 -14.28870 136.71646 37022 ft 477 kts 111°
2026-04-23 00:51 -14.30882 136.78172 37034 ft 478 kts 111°
2026-04-23 00:51 -14.32885 136.84702 37029 ft 478 kts 111°
2026-04-23 00:52 -14.34885 136.91249 37029 ft 479 kts 111°
2026-04-23 00:52 -14.36886 136.97803 37036 ft 479 kts 111°
2026-04-23 00:53 -14.38891 137.04358 37032 ft 480 kts 111°
2026-04-23 00:53 -14.40904 137.10922 37034 ft 480 kts 111°
2026-04-23 00:54 -14.42921 137.17493 37038 ft 480 kts 111°
2026-04-23 00:54 -14.44927 137.24062 37039 ft 480 kts 111°
2026-04-23 00:55 -14.46919 137.30638 37038 ft 480 kts 111°
2026-04-23 00:55 -14.48913 137.37216 37037 ft 480 kts 111°
2026-04-23 00:56 -14.50917 137.43783 37037 ft 480 kts 111°
2026-04-23 00:56 -14.52929 137.50351 37034 ft 480 kts 111°
2026-04-23 00:57 -14.54929 137.56930 37034 ft 480 kts 111°
2026-04-23 00:57 -14.56912 137.63516 37034 ft 481 kts 111°
2026-04-23 00:58 -14.58901 137.70108 37032 ft 481 kts 111°
2026-04-23 00:58 -14.60897 137.76696 37033 ft 481 kts 111°
2026-04-23 00:59 -14.62897 137.83287 37033 ft 481 kts 111°
2026-04-23 00:59 -14.64882 137.89890 37030 ft 481 kts 111°
2026-04-23 01:00 -14.66866 137.96495 37027 ft 481 kts 111°
2026-04-23 01:00 -14.68854 138.03094 37030 ft 482 kts 112°
2026-04-23 01:01 -14.70853 138.09703 37030 ft 482 kts 111°
2026-04-23 01:01 -14.72836 138.16316 37031 ft 482 kts 111°
2026-04-23 01:02 -14.74818 138.22935 37036 ft 482 kts 112°
2026-04-23 01:02 -14.76801 138.29554 37033 ft 482 kts 112°
2026-04-23 01:03 -14.78784 138.36171 37032 ft 482 kts 112°
2026-04-23 01:03 -14.80749 138.42747 37043 ft 482 kts 112°
2026-04-23 01:04 -14.82731 138.49378 37040 ft 483 kts 112°
2026-04-23 01:04 -14.85699 138.59337 37035 ft 484 kts 112°
2026-04-23 01:05 -14.87675 138.65985 37037 ft 484 kts 112°
2026-04-23 01:05 -14.89660 138.72631 37037 ft 484 kts 112°
2026-04-23 01:06 -14.91643 138.79290 37037 ft 485 kts 112°
2026-04-23 01:06 -14.93625 138.85957 37041 ft 485 kts 112°
2026-04-23 01:07 -14.95595 138.92629 37046 ft 485 kts 112°
2026-04-23 01:07 -14.97570 138.99310 37045 ft 486 kts 112°
2026-04-23 01:08 -14.99549 139.05987 37045 ft 486 kts 112°
2026-04-23 01:08 -15.01525 139.12672 37046 ft 486 kts 112°
2026-04-23 01:09 -15.03492 139.19367 37048 ft 486 kts 112°
2026-04-23 01:09 -15.05462 139.26052 37045 ft 486 kts 112°
2026-04-23 01:10 -15.07436 139.32747 37047 ft 486 kts 112°
2026-04-23 01:10 -15.09391 139.39391 37046 ft 486 kts 112°
2026-04-23 01:11 -15.11354 139.46077 37044 ft 486 kts 112°
2026-04-23 01:11 -15.13315 139.52763 37050 ft 485 kts 112°
2026-04-23 01:12 -15.15272 139.59453 37042 ft 486 kts 112°
2026-04-23 01:12 -15.17233 139.66146 37044 ft 486 kts 112°
2026-04-23 01:13 -15.19196 139.72849 37046 ft 486 kts 112°
2026-04-23 01:13 -15.21152 139.79550 37049 ft 487 kts 112°
2026-04-23 01:14 -15.23105 139.86258 37049 ft 487 kts 112°
2026-04-23 01:14 -15.25056 139.92971 37042 ft 487 kts 112°
2026-04-23 01:15 -15.27010 139.99678 37046 ft 487 kts 112°
2026-04-23 01:15 -15.28966 140.06390 37043 ft 487 kts 112°
2026-04-23 01:16 -15.30920 140.13112 37038 ft 487 kts 112°
2026-04-23 01:16 -15.32857 140.19795 37046 ft 488 kts 112°
2026-04-23 01:17 -15.34805 140.26533 37046 ft 488 kts 112°
2026-04-23 01:17 -15.36747 140.33273 37051 ft 489 kts 112°
2026-04-23 01:18 -15.38687 140.40027 37051 ft 489 kts 112°
2026-04-23 01:18 -15.40633 140.46783 37053 ft 489 kts 112°
2026-04-23 01:19 -15.42585 140.53543 37060 ft 490 kts 112°
2026-04-23 01:19 -15.44532 140.60310 37056 ft 490 kts 112°
2026-04-23 01:20 -15.46471 140.67078 37048 ft 490 kts 111°
2026-04-23 01:20 -15.48408 140.73853 37047 ft 490 kts 112°
2026-04-23 01:21 -15.50357 140.80621 37051 ft 490 kts 112°
2026-04-23 01:21 -15.52302 140.87395 37043 ft 490 kts 112°
2026-04-23 01:22 -15.54239 140.94172 37045 ft 490 kts 111°
2026-04-23 01:22 -15.56176 141.00949 37041 ft 490 kts 111°
2026-04-23 01:23 -15.58109 141.07733 37039 ft 491 kts 111°
2026-04-23 01:23 -15.60041 141.14523 37051 ft 491 kts 111°
2026-04-23 01:24 -15.61973 141.21324 37046 ft 492 kts 111°
2026-04-23 01:24 -15.63905 141.28129 37044 ft 492 kts 111°
2026-04-23 01:25 -15.65835 141.34936 37044 ft 492 kts 111°
2026-04-23 01:25 -15.67755 141.41699 37041 ft 492 kts 111°
2026-04-23 01:26 -15.69687 141.48502 37040 ft 492 kts 111°
2026-04-23 01:26 -15.71612 141.55317 37040 ft 492 kts 111°
2026-04-23 01:27 -15.73525 141.62134 37038 ft 492 kts 111°
2026-04-23 01:27 -15.75449 141.68942 37035 ft 492 kts 111°
2026-04-23 01:28 -15.77381 141.75757 37034 ft 492 kts 111°
2026-04-23 01:28 -15.79297 141.82578 37051 ft 493 kts 111°
2026-04-23 01:29 -15.81208 141.89416 37047 ft 493 kts 111°
2026-04-23 01:29 -15.83121 141.96250 37062 ft 493 kts 111°
2026-04-23 01:30 -15.85033 142.03097 37055 ft 494 kts 111°
2026-04-23 01:30 -15.86941 142.09948 37053 ft 494 kts 111°
2026-04-23 01:31 -15.88863 142.16809 37052 ft 495 kts 111°
2026-04-23 01:31 -15.90776 142.23675 37049 ft 495 kts 111°
2026-04-23 01:32 -15.92681 142.30551 37053 ft 496 kts 111°
2026-04-23 01:32 -15.94583 142.37440 37048 ft 496 kts 111°
2026-04-23 01:33 -15.96499 142.44329 37049 ft 496 kts 111°
2026-04-23 01:33 -15.98414 142.51227 37049 ft 497 kts 111°
2026-04-23 01:34 -16.00318 142.58133 37062 ft 497 kts 110°
2026-04-23 01:34 -16.02213 142.65002 37055 ft 498 kts 110°
2026-04-23 01:35 -16.04122 142.71920 37063 ft 498 kts 110°
2026-04-23 01:35 -16.06031 142.78839 37057 ft 498 kts 110°
2026-04-23 01:36 -16.07939 142.85766 37058 ft 498 kts 110°
2026-04-23 01:36 -16.09843 142.92700 37047 ft 499 kts 110°
2026-04-23 01:37 -16.11744 142.99629 37056 ft 499 kts 110°
2026-04-23 01:37 -16.13640 143.06574 37041 ft 499 kts 110°
2026-04-23 01:38 -16.15541 143.13528 37059 ft 500 kts 110°
2026-04-23 01:38 -16.17443 143.20481 37050 ft 500 kts 110°
2026-04-23 01:39 -16.19025 143.26268 37054 ft 500 kts 110°
2026-04-23 01:39 -16.20928 143.33237 37044 ft 501 kts 110°
2026-04-23 01:40 -16.23130 143.41345 37046 ft 501 kts 110°
2026-04-23 01:40 -16.24706 143.47151 37047 ft 502 kts 110°
2026-04-23 01:41 -16.26613 143.54186 37059 ft 502 kts 110°
2026-04-23 01:41 -16.28507 143.61188 37056 ft 503 kts 110°
2026-04-23 01:42 -16.29458 143.64695 36793 ft 504 kts 110°
2026-04-23 01:42 -16.30411 143.68208 36346 ft 504 kts 110°
2026-04-23 01:42 -16.31351 143.71673 35911 ft 505 kts 109°
2026-04-23 01:42 -16.32304 143.75196 35493 ft 506 kts 109°
2026-04-23 01:43 -16.33271 143.78776 35065 ft 509 kts 109°
2026-04-23 01:43 -16.34217 143.82282 34654 ft 511 kts 109°
2026-04-23 01:43 -16.35180 143.85851 34245 ft 513 kts 109°
2026-04-23 01:43 -16.36143 143.89432 33809 ft 514 kts 109°
2026-04-23 01:44 -16.37106 143.93018 33351 ft 515 kts 109°
2026-04-23 01:44 -16.38067 143.96608 32895 ft 515 kts 109°
2026-04-23 01:44 -16.39030 144.00195 32454 ft 514 kts 109°
2026-04-23 01:44 -16.39993 144.03777 32014 ft 514 kts 109°
2026-04-23 01:45 -16.40952 144.07357 31585 ft 513 kts 109°
2026-04-23 01:45 -16.41911 144.10934 31161 ft 512 kts 109°
2026-04-23 01:45 -16.42871 144.14509 30748 ft 512 kts 110°
2026-04-23 01:45 -16.43829 144.18078 30328 ft 511 kts 110°
2026-04-23 01:46 -16.44783 144.21641 29886 ft 511 kts 110°
2026-04-23 01:46 -16.45734 144.25200 29416 ft 511 kts 109°
2026-04-23 01:46 -16.46687 144.28768 28947 ft 511 kts 109°
2026-04-23 01:46 -16.47643 144.32339 28476 ft 512 kts 109°
2026-04-23 01:47 -16.48599 144.35910 28021 ft 512 kts 109°
2026-04-23 01:47 -16.49549 144.39475 27569 ft 509 kts 109°
2026-04-23 01:47 -16.50489 144.43011 27130 ft 505 kts 108°
2026-04-23 01:47 -16.51423 144.46527 26692 ft 501 kts 108°
2026-04-23 01:48 -16.52348 144.50016 26270 ft 497 kts 108°
2026-04-23 01:48 -16.53255 144.53433 25853 ft 494 kts 108°
2026-04-23 01:48 -16.54167 144.56872 25441 ft 491 kts 108°
2026-04-23 01:48 -16.55073 144.60284 25033 ft 487 kts 107°
2026-04-23 01:49 -16.55975 144.63673 24624 ft 483 kts 107°
2026-04-23 01:49 -16.56868 144.67040 24233 ft 480 kts 107°
2026-04-23 01:49 -16.57753 144.70375 23839 ft 476 kts 107°
2026-04-23 01:49 -16.58634 144.73696 23416 ft 473 kts 107°
2026-04-23 01:50 -16.59505 144.76985 22970 ft 470 kts 107°
2026-04-23 01:50 -16.60372 144.80263 22501 ft 467 kts 107°
2026-04-23 01:50 -16.61227 144.83511 22051 ft 464 kts 106°
2026-04-23 01:50 -16.62078 144.86743 21608 ft 460 kts 106°
2026-04-23 01:51 -16.62924 144.89950 21173 ft 457 kts 107°
2026-04-23 01:51 -16.63762 144.93133 20740 ft 454 kts 106°
2026-04-23 01:51 -16.64597 144.96299 20322 ft 451 kts 107°
2026-04-23 01:51 -16.65427 144.99451 19905 ft 449 kts 106°
2026-04-23 01:52 -16.66252 145.02581 19487 ft 447 kts 106°
2026-04-23 01:52 -16.67072 145.05692 19085 ft 444 kts 107°
2026-04-23 01:52 -16.67886 145.08795 18680 ft 442 kts 106°
2026-04-23 01:52 -16.68575 145.11915 18275 ft 442 kts 97°
2026-04-23 01:53 -16.68556 145.15087 17813 ft 434 kts 82°
2026-04-23 01:53 -16.68028 145.18159 17346 ft 428 kts 79°
2026-04-23 01:53 -16.67368 145.21159 16853 ft 422 kts 70°
2026-04-23 01:53 -16.65994 145.23822 16362 ft 415 kts 51°
2026-04-23 01:54 -16.64129 145.26083 15891 ft 410 kts 46°
2026-04-23 01:54 -16.62111 145.28147 15424 ft 404 kts 38°
2026-04-23 01:54 -16.59920 145.29956 14965 ft 399 kts 36°
2026-04-23 01:54 -16.57737 145.31720 14501 ft 396 kts 36°
2026-04-23 01:55 -16.55561 145.33462 14056 ft 393 kts 37°
2026-04-23 01:55 -16.53393 145.35179 13586 ft 388 kts 36°
2026-04-23 01:55 -16.51250 145.36863 13127 ft 383 kts 36°
2026-04-23 01:55 -16.48988 145.38287 12678 ft 378 kts 27°
2026-04-23 01:56 -16.46667 145.39523 12225 ft 372 kts 26°
2026-04-23 01:56 -16.44366 145.40720 11788 ft 367 kts 26°
2026-04-23 01:56 -16.42093 145.41885 11352 ft 362 kts 26°
2026-04-23 01:56 -16.39839 145.43024 10927 ft 357 kts 26°
2026-04-23 01:57 -16.37611 145.44136 10503 ft 352 kts 26°
2026-04-23 01:57 -16.35411 145.45216 10120 ft 347 kts 26°
2026-04-23 01:57 -16.33263 145.46254 10016 ft 333 kts 26°
2026-04-23 01:57 -16.31215 145.47239 10026 ft 315 kts 26°
2026-04-23 01:58 -16.29272 145.48165 10025 ft 299 kts 26°
2026-04-23 01:58 -16.27453 145.49033 10016 ft 276 kts 26°
2026-04-23 01:58 -16.25792 145.49815 10018 ft 255 kts 26°
2026-04-23 01:58 -16.24217 145.50556 10024 ft 244 kts 27°
2026-04-23 01:59 -16.22762 145.51425 10017 ft 239 kts 45°
2026-04-23 01:59 -16.21905 145.52859 9990 ft 235 kts 76°
2026-04-23 01:59 -16.21883 145.54526 9688 ft 232 kts 107°
2026-04-23 01:59 -16.22467 145.56078 9388 ft 230 kts 117°
2026-04-23 02:00 -16.23439 145.57375 9133 ft 228 kts 142°
2026-04-23 02:00 -16.24844 145.58074 8951 ft 225 kts 167°
2026-04-23 02:00 -16.26385 145.58277 8784 ft 221 kts 172°
2026-04-23 02:00 -16.27915 145.58456 8612 ft 221 kts 170°
2026-04-23 02:01 -16.29434 145.58636 8490 ft 219 kts 169°
2026-04-23 02:01 -16.30947 145.58816 8367 ft 220 kts 168°
2026-04-23 02:01 -16.32456 145.58992 8250 ft 217 kts 168°
2026-04-23 02:01 -16.33943 145.59167 8122 ft 216 kts 168°
2026-04-23 02:02 -16.35439 145.59347 8001 ft 215 kts 171°
2026-04-23 02:02 -16.36934 145.59526 7874 ft 218 kts 170°
2026-04-23 02:02 -16.38438 145.59706 7758 ft 216 kts 170°
2026-04-23 02:02 -16.39924 145.59882 7623 ft 215 kts 169°
2026-04-23 02:03 -16.41409 145.60059 7515 ft 214 kts 168°
2026-04-23 02:03 -16.42881 145.60232 7398 ft 212 kts 168°
2026-04-23 02:03 -16.44359 145.60408 7271 ft 214 kts 169°
2026-04-23 02:03 -16.45836 145.60582 7160 ft 214 kts 169°
2026-04-23 02:04 -16.47321 145.60758 7034 ft 216 kts 169°
2026-04-23 02:04 -16.48806 145.60935 6914 ft 214 kts 167°
2026-04-23 02:04 -16.50286 145.61112 6807 ft 213 kts 167°
2026-04-23 02:04 -16.51746 145.61285 6674 ft 210 kts 167°
2026-04-23 02:05 -16.53210 145.61460 6564 ft 213 kts 168°
2026-04-23 02:05 -16.54679 145.61635 6448 ft 212 kts 169°
2026-04-23 02:05 -16.56145 145.61807 6322 ft 212 kts 167°
2026-04-23 02:05 -16.57588 145.61975 6196 ft 205 kts 168°
2026-04-23 02:06 -16.58987 145.62163 5970 ft 203 kts 163°
2026-04-23 02:06 -16.60370 145.62582 5511 ft 210 kts 155°
2026-04-23 02:06 -16.61736 145.63151 5179 ft 212 kts 152°
2026-04-23 02:06 -16.63092 145.63755 4892 ft 212 kts 153°
2026-04-23 02:07 -16.64439 145.64362 4605 ft 211 kts 152°
2026-04-23 02:07 -16.65781 145.64967 4326 ft 210 kts 153°
2026-04-23 02:07 -16.67118 145.65570 4057 ft 209 kts 153°
2026-04-23 02:07 -16.68447 145.66169 3777 ft 208 kts 153°
2026-04-23 02:08 -16.69781 145.66781 3450 ft 210 kts 152°
2026-04-23 02:08 -16.71092 145.67386 3175 ft 207 kts 152°
2026-04-23 02:08 -16.72381 145.67978 2962 ft 194 kts 153°
2026-04-23 02:08 -16.73569 145.68525 2780 ft 180 kts 153°
2026-04-23 02:09 -16.74667 145.69008 2547 ft 164 kts 154°
2026-04-23 02:09 -16.75669 145.69449 2327 ft 148 kts 153°
2026-04-23 02:09 -16.76576 145.69852 2126 ft 136 kts 153°
2026-04-23 02:09 -16.77410 145.70225 1968 ft 126 kts 153°
2026-04-23 02:10 -16.78191 145.70575 1806 ft 119 kts 153°
2026-04-23 02:10 -16.78938 145.70910 1655 ft 115 kts 154°
2026-04-23 02:10 -16.79660 145.71234 1498 ft 112 kts 154°
2026-04-23 02:10 -16.80373 145.71555 1355 ft 111 kts 154°
2026-04-23 02:11 -16.81082 145.71876 1210 ft 111 kts 153°
2026-04-23 02:11 -16.81789 145.72195 1063 ft 110 kts 154°
2026-04-23 02:11 -16.82489 145.72512 922 ft 110 kts 149°
2026-04-23 02:11 -16.83178 145.72839 803 ft 109 kts 150°
2026-04-23 02:12 -16.83891 145.73153 736 ft 113 kts 152°
2026-04-23 02:12 -16.84648 145.73483 558 ft 126 kts 152°
2026-04-23 02:12 -16.85458 145.73852 404 ft 129 kts 155°
2026-04-23 02:12 -16.86276 145.74219 158 ft 126 kts 153°
2026-04-23 02:13 -16.87072 145.74575 11 ft 124 kts 155°
2026-04-23 02:13 -16.87783 145.74901 14 ft 89 kts 155°
2026-04-23 02:13 -16.88197 145.75089 13 ft 45 kts 156°
2026-04-23 02:13 -16.88350 145.75162 15 ft 13 kts 143°
2026-04-23 02:14 -16.88348 145.75241 14 ft 13 kts 66°
2026-04-23 02:14 -16.88302 145.75305 13 ft 11 kts 18°
2026-04-23 02:14 -16.88231 145.75290 12 ft 10 kts 337°
2026-04-23 02:14 -16.88169 145.75262 12 ft 9 kts 336°
2026-04-23 02:15 -16.88062 145.75212 11 ft 8 kts 336°
2026-04-23 02:15 -16.88012 145.75189 10 ft 8 kts 337°
2026-04-23 02:15 -16.87966 145.75169 10 ft 7 kts 338°
2026-04-23 02:16 -16.87909 145.75178 11 ft 9 kts 41°
2026-04-23 02:16 -16.87875 145.75215 11 ft 3 kts 30°
2026-04-23 02:16 -16.87843 145.75217 11 ft 7 kts 350°
2026-04-23 02:16 -16.87806 145.75231 11 ft 6 kts 50°
2026-04-23 02:17 -16.87791 145.75270 12 ft 7 kts 66°
2026-04-23 02:17 -16.87780 145.75296 12 ft 0 kts 65°